Chicago Executive, IL

3:46 PM CST on November 17, 2017 (GMT -0600)
Chicago Executive

Weather History for KPWK - March, 2014

Change the Weather History Date:

Sunday, March 2, 2014

  Actual Average Record
Temperature  
Mean Temperature 6 °F 33 °F  
Max Temperature 12 °F 41 °F 58 °F (2008)
Min Temperature 0 °F 25 °F 0 °F (2014)
Degree Days  
Heating Degree Days 59 32  
Month to date heating degree days 104 65  
Since 1 July heating degree days 5463 4803  
Cooling Degree Days 0 0  
Month to date cooling degree days 0 0  
Year to date cooling degree days 0 0  
Moisture  
Dew Point -2 °F    
Average Humidity 66    
Maximum Humidity 84    
Minimum Humidity 47    
Precipitation  
Precipitation 0.00 in 0.06 in 0.59 in (2002)
Month to date precipitation 0.12  
Year to date precipitation 2.13 2.70  
Sea Level Pressure  
Sea Level Pressure 30.41 in    
Wind  
Wind Speed 10 mph (NNW)    
Max Wind Speed 17 mph    
Max Gust Speed 21 mph    
Visibility 8 miles    
Events Snow    
T = Trace of Precipitation, MM = Missing Value Source: NWS Daily Summary

Daily Weather History Graph

Daily Weather History Graph

Search for Another Location

Airport or City:

Trip Planner

Search our weather history database for the weather conditions in past years. The results will help you decide how hot, cold, wet, or windy it might be!

Date:

Astronomy

Mar. 02, 2014 Rise Set
Actual Time 6:25 AM CST 5:42 PM CST
Civil Twilight 5:57 AM CST 6:10 PM CST
Nautical Twilight 5:24 AM CST 6:43 PM CST
Astronomical Twilight 4:52 AM CST 7:15 PM CST
Moon 6:54 AM CST (3/2) 7:41 PM CST (3/2)
Length of Visible Light 12h 13m
Length of Day
11h 17m
Waxing Crescent, 3% of the Moon is Illuminated
Mar 2
Waxing Crescent
Mar 8
First Quarter
Mar 16
Full
Mar 23
Last Quarter
Mar 30
New

Hourly Weather History & Observations

Time (CST) Temp. Windchill Dew Point Humidity Pressure Visibility Wind Dir Wind Speed Gust Speed Precip Events Conditions
12:33 AM 9.0 °F -3.2 °F 3.9 °F 80% 30.36 in 2.5 mi NNW 8.1 mph - 0.00 in Snow Light Snow
12:52 AM 9.0 °F -3.2 °F 5.0 °F 84% 30.41 in 1.5 mi NNW 8.1 mph - 0.00 in Snow Light Snow
1:13 AM 9.0 °F -3.2 °F 5.0 °F 84% 30.36 in 3.0 mi North 8.1 mph - 0.00 in Snow Light Snow
1:26 AM 9.0 °F 0.6 °F 5.0 °F 84% 30.34 in 6.0 mi North 4.6 mph - 0.00 in Snow Light Snow
1:52 AM 9.0 °F -3.2 °F 3.9 °F 80% 30.38 in 10.0 mi North 8.1 mph - 0.00 in   Overcast
2:18 AM 9.0 °F -5.9 °F 3.9 °F 80% 30.35 in 2.5 mi North 11.5 mph - 0.00 in Snow Light Snow
2:45 AM 9.0 °F 0.6 °F 5.0 °F 84% 30.34 in 1.8 mi NNW 4.6 mph - 0.00 in Snow Light Snow
2:52 AM 9.0 °F -0.9 °F 5.0 °F 84% 30.38 in 1.8 mi North 5.8 mph - 0.00 in Snow Light Snow
3:02 AM 9.0 °F -0.9 °F 5.0 °F 84% 30.34 in 2.5 mi North 5.8 mph - 0.00 in Snow Light Snow
3:09 AM 9.0 °F -2.2 °F 5.0 °F 84% 30.34 in 4.0 mi North 6.9 mph - 0.00 in Snow Light Snow
3:52 AM 8.1 °F -5.3 °F -0.0 °F 70% 30.38 in 8.0 mi NNW 9.2 mph - 0.00 in Snow Light Snow
4:43 AM 8.1 °F -4.3 °F -0.9 °F 67% 30.36 in 2.5 mi NNW 8.1 mph - 0.00 in   Haze
4:52 AM 8.1 °F -5.3 °F -2.0 °F 64% 30.40 in 9.0 mi North 9.2 mph - 0.00 in   Overcast
5:52 AM 7.0 °F -8.3 °F -2.9 °F 64% 30.40 in 10.0 mi North 11.5 mph - N/A   Overcast
6:52 AM 6.1 °F -8.7 °F -2.9 °F 67% 30.42 in 10.0 mi NNW 10.4 mph - N/A   Overcast
7:52 AM 6.1 °F -10.2 °F -4.0 °F 63% 30.42 in 10.0 mi NNW 12.7 mph - N/A   Overcast
8:52 AM 7.0 °F -9.1 °F -2.9 °F 64% 30.43 in 10.0 mi NW 12.7 mph - N/A   Overcast
9:52 AM 7.0 °F -9.8 °F -2.0 °F 67% 30.44 in 10.0 mi NNW 13.8 mph - N/A   Overcast
10:52 AM 9.0 °F -7.3 °F -0.9 °F 64% 30.43 in 10.0 mi NW 13.8 mph - N/A   Scattered Clouds
11:52 AM 10.9 °F -3.4 °F 1.0 °F 64% 30.43 in 10.0 mi NNW 11.5 mph - N/A   Clear
12:52 PM 12.0 °F -2.7 °F 1.0 °F 61% 30.41 in 10.0 mi NW 12.7 mph - N/A   Clear
1:52 PM 12.0 °F -3.4 °F -0.0 °F 59% 30.39 in 10.0 mi NW 13.8 mph - N/A   Clear
2:52 PM 10.9 °F -4.7 °F -2.0 °F 56% 30.40 in 10.0 mi NW 13.8 mph - N/A   Clear
3:52 PM 10.0 °F -3.7 °F -4.0 °F 53% 30.41 in 10.0 mi NW 10.4 mph - N/A   Clear
4:52 PM 8.1 °F -7.7 °F -5.1 °F 55% 30.43 in 10.0 mi NNW 12.7 mph - N/A   Clear
5:52 PM 6.1 °F -10.2 °F -8.0 °F 53% 30.43 in 10.0 mi NNW 12.7 mph - N/A   Clear
6:52 PM 5.0 °F -10.0 °F -11.0 °F 48% 30.46 in 10.0 mi NW 10.4 mph - N/A   Clear
7:52 PM 3.0 °F -11.5 °F -11.9 °F 50% 30.45 in 10.0 mi NNW 9.2 mph - N/A   Clear
8:52 PM 1.9 °F -9.2 °F -14.1 °F 47% 30.46 in 10.0 mi NNW 5.8 mph - N/A   Clear
9:52 PM 1.0 °F -8.7 °F -14.1 °F 49% 30.48 in 10.0 mi NW 4.6 mph - N/A   Clear
10:52 PM 1.0 °F -8.7 °F -14.1 °F 49% 30.48 in 10.0 mi NW 4.6 mph - N/A   Clear
11:52 PM -0.0 °F -11.6 °F -14.1 °F 52% 30.48 in 10.0 mi NW 5.8 mph - N/A   Clear